{"data":{"norad_id":64422,"epoch":"2026-09-20T12:14:44.260800Z","epoch_age_seconds":133488,"freshness":"FRESH","line1":"1 64422U 25129L   26263.51023450  .00012580  00000+0  44121-3 0  9996","line2":"2 64422  70.0008 301.0893 0003343 270.8224  89.2568 15.29587216 70514","mean_motion":15.29587216,"eccentricity":0.0003343,"inclination_deg":70.0008,"raan_deg":301.0893,"arg_perigee_deg":270.8224,"mean_anomaly_deg":89.2568,"bstar":0.00044121,"rev_number":7051,"period_min":94.143046237384,"perigee_km":474.7536553375,"apogee_km":479.3370302519,"semimajor_km":6855.1823427947,"source":"CELESTRAK","updated_at":"2026-09-21T09:00:35.347846Z"}}